map of MSR home
Great Circle Mapper logo
MSR - Airport
Location
City:  Mus, Mus, Turkey
ICAO:LTCK
IATA:MSR

Details
Type:Airport (Aerodrome, Airfield)
Use:Public/Civil, Military
Latitude:3844'52"N (38.747769)
Longitude:4139'40"E (41.661236)
Datum:WGS 1984
Elevation:4157 ft (1267 m)
Variation:5.71E (WMM2015 magnetic declination)
0.08 annual change
Runways:1
Longest:11649 × 148 ft (3551 × 45 m), paved

Time
Time Zone:UTC+2 (DST+3)
Local Time:

Weather
METAR:LTCK 041450Z 13019G31KT 9999 FEW020CB SCT030 BKN080 15/07 Q1010

Related Locations
Nearby:
Farthest:GMR: 11332 mi / 18237 km
Mangareva [Totegegie], Gambier Islands, PF

Find:

   beyond  
but within

Other Information
Maps:
NOTAMs:
Links:
Sources:

  
flag of Turkey   

Sectional Chart

Flight Planning
at skyvector.com

Satellite Image

Google Maps Satellite view

 

Copyright © 2004-2016 Karl L. Swartz. All rights reserved.
The Great Circle Mapper name and logo are trademarks of the Great Circle Mapper.
All other trademarks mentioned herein belong to their respective owners.
Please see credits for attibutions and further copyright information.

  Follow gcmap on Facebook Follow gcmap on Twitter Follow gcmap on Google+ GCmap on LinkedIn

hCard Microformat

Geo Microformat